This is the latest recevied weather packets stored in our database for station/object M0OAB-1. If no packets are shown the sender has not sent any weather packets the latest 10 day(s).
| Time | Temp. | Humidity | Pressure | Rain* | Wind** | Luminosity | Snow |
|---|---|---|---|---|---|---|---|
| 1777810324 | 20° C | 56% | 995.7 hPa | 0 mm | - | - | - |
| 1777809604 | 20.56° C | 58% | 995.5 hPa | 0 mm | - | - | - |
| 1777809484 | 20.56° C | 57% | 995.5 hPa | 0 mm | - | - | - |
| 1777809364 | 20.56° C | 57% | 995.6 hPa | 0 mm | - | - | - |
| 1777809124 | 20° C | 58% | 995.6 hPa | 0 mm | - | - | - |
| 1777808404 | 19.44° C | 60% | 995.6 hPa | 0 mm | - | - | - |
| 1777807804 | 19.44° C | 58% | 995.8 hPa | 0 mm | - | - | - |
| 1777807684 | 20° C | 58% | 995.8 hPa | 0 mm | - | - | - |
| 1777807564 | 20° C | 59% | 995.6 hPa | 0 mm | - | - | - |
| 1777806844 | 19.44° C | 61% | 995.6 hPa | 0 mm | - | - | - |
| 1777806604 | 18.89° C | 60% | 995.7 hPa | 0 mm | - | - | - |
| 1777806004 | 18.89° C | 60% | 995.8 hPa | 0 mm | - | - | - |
| 1777805284 | 19.44° C | 59% | 995.6 hPa | 0 mm | - | - | - |
| 1777805044 | 19.44° C | 60% | 995.7 hPa | 0 mm | - | - | - |
| 1777804564 | 19.44° C | 60% | 995.7 hPa | 0 mm | - | - | - |
| 1777802884 | 18.89° C | 60% | 995.8 hPa | 0 mm | - | - | - |
| 1777802044 | 18.33° C | 62% | 995.7 hPa | 0 mm | - | - | - |
| 1777801804 | 18.33° C | 62% | 995.9 hPa | 0 mm | - | - | - |
| 1777800724 | 17.78° C | 63% | 995.5 hPa | 0 mm | - | - | - |
| 1777799284 | 17.22° C | 67% | 995.7 hPa | 0 mm | - | - | - |
| 1777798324 | 17.22° C | 66% | 995.6 hPa | 0 mm | - | - | - |
| 1777796644 | 16.67° C | 67% | 995.5 hPa | 0 mm | - | - | - |
| 1777796524 | 16.67° C | 67% | 995.5 hPa | 0 mm | - | - | - |
| 1777792204 | 15.56° C | 80% | 995.3 hPa | 0 mm | - | - | - |
| 1777791604 | 14.44° C | 79% | 995.3 hPa | 0 mm | - | - | - |
* Rain latest hour (hover to see other rain measurements)
** Current wind speed in m/s (hover to see current wind gust speed)